[[{"header":{"parameterUnit":"m.s-1","parameterCategory":1,"la1":30.2991,"la2":30.254,"lo1":-89.0895,"lo2":-89.0444,"dy":0.0017,"dx":0.0017,"nx":28,"ny":28,"refTime":"2023-07-17T21:00:00:Z","depth":0,"parameterNumber":2,"parameterNumberName":"U-component_of_WINDS"},"data":[0,0,0,0,0,0,0,0,0,0,0,0,0,0,0,0,0,0,0,0,0,0,0,0,0,0,0,0,0,0,0,0,0,0,0,0,0,0,0,0,0,0,0,0,0,0,0,0,0,0,0,0,0,0,0,0,0,0,2.4442,2.4443,0,2.4503,2.4504,2.4504,2.451,2.4509,2.4509,2.4508,2.4573,2.4575,2.4577,0,0,0,0,0,0,0,0,0,0,0,0,0,2.4334,2.4336,2.4442,2.4443,2.4444,2.4503,2.4504,2.4505,2.451,2.4509,2.4509,2.4508,2.4572,2.4575,2.4577,0,0,0,0,0,0,0,0,0,0,0,0,0,2.4387,2.4337,2.4442,2.4454,2.4455,2.4503,2.4504,2.4505,2.451,2.4509,2.4508,2.4508,2.4571,2.4574,2.4578,2.4618,0,0,2.4588,2.459,0,0,0,0,0,0,0,0,2.4384,2.4391,2.4451,2.4453,2.4455,2.4498,2.4489,2.4543,2.4511,2.449,2.4508,2.4507,2.4549,2.4554,2.4568,2.4621,2.4624,2.4589,2.4591,2.4592,2.4593,0,0,0,0,0,0,0,2.438,2.4388,2.4466,2.4452,2.4454,2.4457,2.4463,2.45,2.4524,2.4491,2.4492,2.4499,2.455,2.4564,2.4569,2.4625,2.4589,2.4592,2.4594,2.4595,2.4717,2.4718,0,0,0,0,0,0,2.4374,2.4385,2.4465,2.4468,2.4416,2.446,2.4467,2.4485,2.4524,2.4528,2.45,2.4499,2.4559,2.4565,2.4571,2.4622,2.4592,2.4595,2.4597,2.4716,2.4717,2.4719,0,0,0,0,0,0,2.4372,2.4381,2.4462,2.4427,2.4437,2.4462,2.4483,2.4487,2.4501,2.453,2.4534,2.451,2.4558,2.4566,2.4607,2.4625,2.4597,2.46,2.4715,2.4716,2.4718,2.4724,0,0,0,0,0,0,2.4369,2.438,2.4395,2.4427,2.4439,2.4496,2.4484,2.4489,2.4507,2.4507,2.4541,2.4545,2.4558,2.4602,2.461,2.4629,2.4603,2.4713,2.4715,2.4717,2.4723,2.4726,2.4729,0,0,0,0,0,2.4365,2.4395,2.4396,2.4405,2.4458,2.4497,2.4504,2.4517,2.4509,2.4524,2.4543,2.4544,2.4621,2.4606,2.4616,2.4636,2.4712,2.4715,2.4717,2.4721,2.4725,2.4729,0,0,0,0,0,0,2.4365,2.4399,2.4401,2.4442,2.4466,2.4498,2.4518,2.4521,2.4549,2.4547,2.4564,2.4571,2.4611,2.4627,2.4609,2.4678,2.4666,2.4671,2.4666,2.467,2.4673,2.4668,2.4606,0,0,0,0,0,2.4369,2.4397,2.4426,2.4459,2.4471,2.4493,2.451,2.4518,2.4544,2.4555,2.4576,2.4602,2.4632,2.4652,2.4681,2.4725,2.4733,2.4744,2.4747,2.4749,2.4753,2.4779,2.4784,2.4727,2.4727,2.4727,0,0,2.438,2.4402,2.4418,2.446,2.448,2.4509,2.4501,2.4532,2.4554,2.456,2.4599,2.4616,2.4646,2.4689,2.4708,2.4703,2.4771,2.4753,2.4754,2.4757,2.4782,2.4788,2.4792,2.4729,2.4729,2.4728,0,0,2.4413,2.4432,2.4463,2.4483,2.4513,2.4527,2.4534,2.4565,2.4576,2.4616,2.4621,2.4648,2.4699,2.4721,2.4739,2.4782,2.4785,2.4791,2.4808,2.4832,2.4837,2.4841,2.4857,2.4862,2.4795,2.4795,2.4795,0,2.4422,2.4465,2.4478,2.4509,2.4528,2.4534,2.4566,2.4585,2.4623,2.4636,2.463,2.4695,2.4716,2.4764,2.4775,2.4788,2.4798,2.4787,2.4835,2.4839,2.4843,2.4859,2.4865,2.4795,2.4795,2.4795,2.4795,0,2.4475,2.4505,2.4527,2.4563,2.4584,2.4615,2.4634,2.4654,2.4661,2.4676,2.4717,2.4742,2.4777,2.4789,2.4796,2.4839,2.4835,2.4831,2.482,2.4849,2.4864,2.487,2.4796,2.4796,2.4796,2.4796,0,0,2.451,2.4554,2.4562,2.4579,2.4613,2.4636,2.4669,2.4702,2.4719,2.4746,2.4774,2.4818,2.4815,2.4835,2.4845,2.4866,2.49,2.4861,2.4862,2.4868,2.495,2.4952,2.4959,2.4902,2.4903,2.4904,2.4947,0,2.4548,2.4604,2.4617,2.4666,2.4695,2.4701,2.4729,2.4754,2.4769,2.4796,2.4813,2.4844,2.4838,2.485,2.4872,2.4891,2.4917,2.4888,2.4929,2.493,2.4922,2.4966,2.4969,2.5009,2.4953,2.4954,2.4955,0,2.46,2.4627,2.4678,2.471,2.4722,2.4747,2.4779,2.4805,2.4833,2.4843,2.4866,2.4873,2.4908,2.4895,2.4943,2.4924,2.4941,2.4953,2.4955,2.496,2.4945,2.4973,2.5022,2.5028,2.4964,2.4963,2.4963,0,2.4621,2.4671,2.4708,2.4723,2.4759,2.4777,2.4793,2.4821,2.484,2.4869,2.4882,2.4915,2.4933,2.4958,2.4975,2.4963,2.5023,2.5011,2.5033,2.5032,2.5045,2.5044,2.5098,2.5055,2.5055,2.5055,2.5055,0,2.4662,2.4694,2.4718,2.4741,2.4777,2.4792,2.4828,2.4844,2.4869,2.4896,2.4904,2.493,2.495,2.4978,2.4992,2.5031,2.5039,2.5048,2.5051,2.5048,2.5047,2.506,2.5058,2.5057,2.5056,2.5056,2.5056,0,2.4692,2.471,2.4751,2.4783,2.4792,2.4817,2.4844,2.4868,2.4883,2.4918,2.4927,2.4951,2.4985,2.5004,2.5047,2.5057,2.51,2.5102,2.509,2.5092,2.5113,2.5111,2.5178,2.5187,2.5138,2.5138,2.5139,0,2.4718,2.4742,2.4776,2.4795,2.4811,2.4841,2.4861,2.4877,2.4898,2.4933,2.4952,2.4987,2.5015,2.507,2.5092,2.5126,2.5129,2.515,2.5134,2.5129,2.513,2.5128,2.5131,2.5152,2.5153,2.5153,2.5154,0,2.4761,2.4769,2.4797,2.4829,2.4852,2.4878,2.4904,2.4919,2.494,2.4963,2.4998,2.502,2.5064,2.5099,2.5134,2.5152,2.5157,2.5158,2.5165,2.5162,2.5155,2.516,2.5099,2.5157,2.5156,2.5156,2.5156,2.5156,2.479,2.4812,2.484,2.4872,2.4893,2.4917,2.494,2.4959,2.4988,2.5024,2.5032,2.5069,2.5098,2.5146,2.5165,2.5195,2.5191,2.5201,2.5204,2.5206,2.5207,2.5149,2.5201,2.5201,2.5201,2.5201,2.5201,0,2.4835,2.4853,2.4882,2.4917,2.4942,2.4944,2.4973,2.4994,2.5026,2.5052,2.508,2.5121,2.5155,2.518,2.5215,2.5234,2.5237,2.5242,2.5241,2.5246,2.5208,2.5199,2.5239,2.5239,2.5239,2.5239,2.5239,2.5239,2.4861,2.4899,2.491,2.4959,2.4977,2.5013,2.5029,2.5052,2.5073,2.5118,2.5145,2.5161,2.5188,2.5224,2.5256,2.5263,2.5275,2.5281,2.5288,2.5252,2.5248,2.5244,2.5236,2.5283,2.5283,2.5323,2.5323,2.5323]},{"header":{"parameterUnit":"m.s-1","parameterCategory":1,"la1":30.2991,"la2":30.254,"lo1":-89.0895,"lo2":-89.0444,"dy":0.0017,"dx":0.0017,"nx":28,"ny":28,"refTime":"2023-07-17T21:00:00:Z","depth":0,"parameterNumber":3,"parameterNumberName":"V-component_of_WINDS"},"data":[0,0,0,0,0,0,0,0,0,0,0,0,0,0,0,0,0,0,0,0,0,0,0,0,0,0,0,0,0,0,0,0,0,0,0,0,0,0,0,0,0,0,0,0,0,0,0,0,0,0,0,0,0,0,0,0,0,0,1.4451,1.4451,0,1.444,1.444,1.4439,1.4441,1.4441,1.4441,1.4441,1.4429,1.4428,1.4428,0,0,0,0,0,0,0,0,0,0,0,0,0,1.4472,1.4472,1.4451,1.4451,1.4451,1.444,1.444,1.4439,1.4441,1.4441,1.4441,1.4441,1.4429,1.4428,1.4428,0,0,0,0,0,0,0,0,0,0,0,0,0,1.4462,1.4472,1.4451,1.445,1.445,1.444,1.444,1.4439,1.4441,1.4441,1.4441,1.4442,1.4429,1.4429,1.4428,1.4418,0,0,1.4425,1.4425,0,0,0,0,0,0,0,0,1.4463,1.4461,1.445,1.445,1.445,1.4442,1.4442,1.4432,1.4441,1.4444,1.4441,1.4442,1.4433,1.4432,1.4429,1.4417,1.4416,1.4425,1.4425,1.4425,1.4424,0,0,0,0,0,0,0,1.4463,1.4462,1.4446,1.445,1.445,1.445,1.4449,1.444,1.4437,1.4444,1.4444,1.4443,1.4433,1.443,1.4429,1.4416,1.4425,1.4425,1.4424,1.4424,1.4394,1.4394,0,0,0,0,0,0,1.4465,1.4462,1.4447,1.4446,1.4457,1.4449,1.4448,1.4444,1.4437,1.4436,1.4442,1.4443,1.4431,1.443,1.4428,1.4416,1.4425,1.4424,1.4423,1.4395,1.4394,1.4394,0,0,0,0,0,0,1.4465,1.4463,1.4447,1.4454,1.4452,1.4448,1.4444,1.4444,1.4441,1.4436,1.4435,1.444,1.4431,1.4429,1.442,1.4415,1.4424,1.4423,1.4395,1.4394,1.4394,1.439,0,0,0,0,0,0,1.4466,1.4463,1.446,1.4454,1.4452,1.444,1.4444,1.4443,1.444,1.444,1.4434,1.4433,1.4431,1.4421,1.4419,1.4414,1.4422,1.4395,1.4395,1.4394,1.439,1.4389,1.4388,0,0,0,0,0,1.4466,1.4459,1.446,1.4458,1.4447,1.4439,1.4438,1.4436,1.4439,1.4435,1.4432,1.4433,1.4416,1.442,1.4418,1.4413,1.4396,1.4395,1.4394,1.4391,1.439,1.4388,0,0,0,0,0,0,1.4464,1.4458,1.4459,1.4449,1.4445,1.444,1.4435,1.4435,1.4429,1.443,1.4428,1.4426,1.4417,1.4414,1.4419,1.4402,1.4406,1.4405,1.4404,1.4403,1.4402,1.4403,1.4422,0,0,0,0,0,1.4462,1.4456,1.4452,1.4444,1.4441,1.4438,1.4435,1.4434,1.4429,1.4427,1.4423,1.4418,1.4411,1.4407,1.4401,1.439,1.4388,1.4385,1.4384,1.4383,1.4382,1.4376,1.4374,1.4391,1.4391,1.4391,0,0,1.4458,1.4455,1.4451,1.4443,1.444,1.4433,1.4437,1.443,1.4425,1.4426,1.4417,1.4414,1.4408,1.4398,1.4393,1.4395,1.4377,1.4382,1.4382,1.4381,1.4375,1.4373,1.4372,1.4391,1.4391,1.4391,0,0,1.4449,1.4446,1.4438,1.4435,1.4429,1.4427,1.4425,1.442,1.4418,1.4409,1.4409,1.4403,1.4392,1.4387,1.4384,1.4372,1.4372,1.437,1.4364,1.4358,1.4356,1.4355,1.435,1.4349,1.4369,1.4369,1.4369,0,1.4445,1.4436,1.4435,1.4428,1.4424,1.4425,1.4417,1.4413,1.4406,1.4403,1.4405,1.4391,1.4387,1.4375,1.4372,1.437,1.4367,1.437,1.4357,1.4356,1.4354,1.435,1.4348,1.4368,1.4368,1.4368,1.4368,0,1.4431,1.4425,1.442,1.4413,1.4408,1.4401,1.4398,1.4394,1.4393,1.4391,1.4381,1.4376,1.4369,1.4366,1.4366,1.4354,1.4356,1.4357,1.4361,1.4352,1.4348,1.4346,1.4368,1.4368,1.4368,1.4368,0,0,1.4419,1.4412,1.441,1.4407,1.44,1.4395,1.4388,1.438,1.4376,1.4371,1.4364,1.4355,1.4356,1.4352,1.4351,1.4345,1.4335,1.4348,1.4347,1.4345,1.4322,1.4321,1.4319,1.4336,1.4335,1.4335,1.4322,0,1.4409,1.4396,1.4395,1.4383,1.4377,1.4377,1.437,1.4366,1.4363,1.4357,1.4354,1.4347,1.435,1.4347,1.4341,1.4338,1.4331,1.4339,1.4329,1.4329,1.433,1.4316,1.4315,1.4303,1.4321,1.4321,1.432,0,1.4395,1.4389,1.4377,1.4371,1.4369,1.4363,1.4356,1.435,1.4344,1.4343,1.4338,1.4337,1.4329,1.4333,1.4322,1.4327,1.4323,1.432,1.432,1.4319,1.4324,1.4315,1.43,1.4298,1.4318,1.4318,1.4318,0,1.4387,1.4376,1.4368,1.4365,1.4358,1.4354,1.4351,1.4345,1.4341,1.4335,1.4332,1.4325,1.4321,1.4315,1.4312,1.4316,1.43,1.4304,1.4298,1.4298,1.4295,1.4295,1.4278,1.4292,1.4292,1.4292,1.4292,0,1.4375,1.4368,1.4364,1.4359,1.435,1.4348,1.434,1.4336,1.4332,1.4325,1.4325,1.4319,1.4316,1.4309,1.4307,1.4297,1.4295,1.4293,1.4292,1.4293,1.4293,1.429,1.4291,1.4292,1.4292,1.4292,1.4292,0,1.4365,1.4362,1.4353,1.4347,1.4345,1.4339,1.4334,1.4329,1.4326,1.4318,1.4316,1.4311,1.4303,1.43,1.429,1.4288,1.4277,1.4277,1.4279,1.4279,1.4272,1.4273,1.4253,1.425,1.4267,1.4266,1.4266,0,1.4357,1.4352,1.4345,1.4341,1.4338,1.4331,1.4327,1.4325,1.432,1.4313,1.4308,1.43,1.4293,1.428,1.4276,1.4268,1.4268,1.4262,1.4267,1.4267,1.4267,1.4268,1.4267,1.4261,1.426,1.426,1.426,0,1.4344,1.4343,1.4337,1.433,1.4325,1.432,1.4314,1.4311,1.4308,1.4302,1.4294,1.4289,1.4279,1.4271,1.4263,1.4259,1.4259,1.4259,1.4257,1.4257,1.4258,1.4257,1.4276,1.4259,1.4259,1.4259,1.4259,1.4259,1.4335,1.4329,1.4324,1.4317,1.4313,1.4308,1.4302,1.4299,1.4292,1.4284,1.4283,1.4274,1.4268,1.4257,1.4253,1.4245,1.4247,1.4244,1.4244,1.4243,1.4242,1.4259,1.4244,1.4244,1.4244,1.4244,1.4244,0,1.4321,1.4318,1.4311,1.4304,1.4298,1.4299,1.4293,1.4288,1.428,1.4275,1.4268,1.4259,1.4251,1.4246,1.4237,1.4232,1.4232,1.423,1.4231,1.423,1.4242,1.4244,1.4231,1.4231,1.4231,1.4231,1.4231,1.4231,1.4313,1.4304,1.4303,1.4291,1.4288,1.4279,1.4276,1.4271,1.4266,1.4256,1.4249,1.4246,1.424,1.4232,1.4224,1.4223,1.4219,1.4218,1.4216,1.4227,1.4229,1.423,1.4232,1.4217,1.4217,1.4205,1.4205,1.4205]}]]